Location: Boullarre
(49.1305°N, 3.0047°E)
Time: 13:35:09
(UTC+00:00)

Cosmos 1763 Rocket - Pass Details

Date: 03 February 2023
Orbit: 733 x 778 km, 74.0° (Epoch: 21 March)

Event Time Altitude Azimuth Distance (km) Brightness Sun altitude
Rises 18:16:45 0° 334° (NNW) 3,229 7.0 -14.8°
Reaches altitude 10° 18:19:10 10° 331° (NNW) 2,292 6.2 -15.2°
Maximum altitude 18:24:17 61° 252° (WSW) 846 4.0 -16.0°
Drops below altitude 10° 18:29:17 10° 173° (S) 2,247 5.9 -16.8°
Sets 18:31:38 0° 170° (S) 3,160 6.6 -17.2°
